Hourly Data Report for June 02, 2017

FISHER BRANCH (AUT)
MANITOBA

51°05'00.100" N
97°33'16.200" W
253.00 m
50309J6
71442
WSZ

Download Data

Hourly Data (June 2017)
Hourly Data Report for June 2, 2017
TIME
LST
Temp Definition
°C
Dew Point Definition
°C
Rel Hum Definition
%
Precip. Amount Definition
mm

Wind Dir Definition
10's deg

Wind Spd Definition
km/h
Visibility Definition
km
Stn Press Definition
kPa
Hmdx Definition


Wind Chill Definition


Weather Definition


00:00 18.5 4.9 41 0.0 15 14   98.01     LegendNANA
01:00 18.0 4.9 42 0.0 15 14   97.99     LegendNANA
02:00 18.2 4.6 41 0.0 16 16   97.94     LegendNANA
03:00 17.8 4.6 42 0.0 17 14   97.92     LegendNANA
04:00 17.4 4.5 42 0.0 16 13   97.93     LegendNANA
05:00 15.5 5.9 53 0.0 13 14   97.90     LegendNANA
06:00 19.0 4.3 38 0.0 16 17   97.88     LegendNANA
07:00 21.3 4.3 33 0.0 17 23   97.86     LegendNANA
08:00 22.4 5.5 33 0.0 15 23   97.84     LegendNANA
09:00 24.4 7.6 34 0.0 16 23   97.80 25   LegendNANA
10:00 26.4 9.6 35 0.0 16 25   97.74 27   LegendNANA
11:00 28.6 11.2 34 0.0 15 26   97.72 30   LegendNANA
12:00 31.0 10.3 28 0.0 15 27   97.66 32   LegendNANA
13:00 32.4 10.6 26 0.0 16 31   97.61 34   LegendNANA
14:00 33.4 10.9 25 0.0 18 30   97.56 35   LegendNANA
15:00 33.6 11.2 26 0.0 18 30   97.48 35   LegendNANA
16:00 32.8 11.8 28 0.0 16 30   97.39 35   LegendNANA
17:00 31.8 12.4 31 0.0 14 24   97.32 34   LegendNANA
18:00 29.3 13.5 38 0.0 16 15   97.30 32   LegendNANA
19:00 28.0 13.6 41 0.0 16 16   97.29 31   LegendNANA
20:00 23.6 14.6 57 0.0 22 27   97.54 27   LegendNANA
21:00 19.7 15.4 76 1.0 21 26   97.79     LegendNANA
22:00 19.2 15.7 80 1.4 20 15   97.59     LegendNANA
23:00 18.8 15.2 79 0.0 23 5   97.48     LegendNANA

Notes on Data Quality.

Legend

  • E = Estimated
  • M = Missing
  • NA = Not Available*
  • [empty] = Indicates an unobserved value
Date modified: